Regional Weather Roundup
Issued by NWS

Home | Current Version | Previous Version | Text Only | Print | Product List | Glossary On
Versions: 1 2 3 4 5 6 7 8 9 10 11 12 13 14 15 16 17 18 19 20 21 22 23 24 25 26 27 28 29 30 31 32 33 34 35 36 37 38 39 40 41 42 43 44 45 46 47 48 49
000
ASUS43 KDMX 310007
RWRIA

WEATHER ROUNDUP FOR IOWA
NATIONAL WEATHER SERVICE DES MOINES IA
700 PM CDT WED JUL 30 2014

NOTE: "FAIR" INDICATES FEW OR NO CLOUDS BELOW 12,000 FEET WITH NO
SIGNIFICANT WEATHER AND/OR OBSTRUCTIONS TO VISIBILITY.

* - THESE STATIONS ARE NOT NWS STATIONS...THUS NOT UNDER NWS
QUALITY CONTROL.  THEY ALSO DO NOT REPORT WEATHER SUCH
AS PRECIPITATION OR FOG.

IAZ001>003-012>014-020>022-031>034-043>046-310100-
   NORTHWEST IOWA

CITY           SKY/WX    TMP DP  RH WIND       PRES   REMARKS
CARROLL *      SUNNY     75  57  53 N3        30.09S
CHEROKEE *     SUNNY     75  55  49 NW5       30.10S
DENISON *      SUNNY     75  55  50 NW5       30.09S
LE MARS *      SUNNY     77  55  47 CALM      30.11S
ORANGE CITY *  MOSUNNY   77  54  44 CALM      30.11S
SHELDON *      SUNNY     75  57  53 W5        30.10S
SIOUX CITY     MOSUNNY   78  55  44 E3        30.10S
6HR MIN TEMP:  77; 6HR MAX TEMP:  82;

SPENCER        SUNNY     76  57  51 NW5       30.10F
6HR MIN TEMP:  75; 6HR MAX TEMP:  79;

STORM LAKE *   SUNNY     73  57  56 CALM      30.11S
$$

IAZ055>058-069>071-079>083-090>094-310100-
   SOUTHWEST IOWA

CITY           SKY/WX    TMP DP  RH WIND       PRES   REMARKS
ATLANTIC *     SUNNY     75  57  53 N3        30.09S
AUDUBON *      MOSUNNY   79  57  47 CALM      30.11S HX  80
CLARINDA *     SUNNY     77  59  53 NE5       30.10S
COUNCIL BLFS * SUNNY     77  55  47 N6        30.09S
CRESTON *      SUNNY     75  54  46 N7        30.09F
HARLAN  *      MOSUNNY   75  55  50 NE3       30.13F
LAMONI         SUNNY     78  57  48 N6        30.08S
6HR MIN TEMP:  76; 6HR MAX TEMP:  81;

RED OAK *      SUNNY     77  59  53 N3        30.09S
SHENANDOAH *   SUNNY     77  59  53 CALM      30.09S
$$

IAZ047>049-059>061-072>074-084-310100-
   CENTRAL IOWA

CITY           SKY/WX    TMP DP  RH WIND       PRES   REMARKS
AMES           SUNNY     77  56  48 NW5       30.07S
6HR MIN TEMP:  76; 6HR MAX TEMP:  80;

ANKENY *       SUNNY     77  54  44 N5        30.07S
CHARITON *     SUNNY     77  57  50 NW3       30.08S
DES MOINES     MOSUNNY   78  53  41 N5        30.06F
6HR MIN TEMP:  77; 6HR MAX TEMP:  83;

GRINNELL*      SUNNY     75  58  55 W5        30.07F
KNOXVILLE *    SUNNY     77  55  47 NW5       30.06S
MARSHALLTOWN   SUNNY     77  60  55 NW6       30.06S
6HR MIN TEMP:  76; 6HR MAX TEMP:  80;

PELLA *        SUNNY     78  58  50 NW3       30.08S
PERRY *          N/A     75  59  56 NW3       30.08F
$$

IAZ004>006-015-016-023>025-035-036-310100-
   NORTH CENTRAL IOWA

CITY           SKY/WX    TMP DP  RH WIND       PRES   REMARKS
ALGONA *       SUNNY     77  57  50 NW6       30.09S
CLARION *      SUNNY     75  59  57 NW5       30.08S
ESTHERVILLE    SUNNY     74  54  49 NW8       30.09F
6HR MIN TEMP:  74; 6HR MAX TEMP:  78;

FORT DODGE *   SUNNY     75  57  53 CALM      30.09S
MASON CITY     SUNNY     76  59  55 NW8       30.09S
6HR MIN TEMP:  76; 6HR MAX TEMP:  80;

FOREST CITY *  SUNNY     73  59  60 E6        30.08S
IOWA FALLS *     N/A     75  57  53 NW3       30.08S
$$

IAZ007>011-017>019-026>030-037>042-050>054-066-310100-
   NORTHEAST IOWA

CITY           SKY/WX    TMP DP  RH WIND       PRES   REMARKS
CEDAR RAPIDS   SUNNY     76  61  59 NW6       30.04S
6HR MIN TEMP:  75; 6HR MAX TEMP:  80;

CHARLES CITY * MOSUNNY   75  63  64 NW5       30.07S
CLINTON *      SUNNY     73  61  64 N6        30.06S
DECORAH *      SUNNY     73  61  64 CALM      30.04F
DUBUQUE        SUNNY     73  59  61 N7        30.05S
6HR MIN TEMP:  73; 6HR MAX TEMP:  77;

MONTICELLO *   SUNNY     75  61  60 N6        30.04S
OELWEIN *      SUNNY     75  61  60 NW5       30.06S
WATERLOO         N/A     77  57  50 NW6       30.04S
6HR MIN TEMP:  77; 6HR MAX TEMP:  81;

$$

IAZ064-065-067-068-078-310100-
   EAST CENTRAL IOWA

CITY           SKY/WX    TMP DP  RH WIND       PRES   REMARKS
DAVENPORT      SUNNY     75  60  59 NW6       30.04S
6HR MIN TEMP:  75; 6HR MAX TEMP:  80;

IOWA CITY      SUNNY     78  60  53 NW7       30.05S
6HR MIN TEMP:  77; 6HR MAX TEMP:  81;

MT. PLEASANT * MOSUNNY   78  56  46 NW6       30.05S
MUSCATINE *    SUNNY     79  59  50 NW3       30.04S HX  80
QUAD CITIES    MOSUNNY   78  58  49 NW8       30.03R
6HR MIN TEMP:  78; 6HR MAX TEMP:  82;

$$

IAZ062-063-075>077-085>089-095>099-310100-
   SOUTHEAST IOWA

CITY           SKY/WX    TMP DP  RH WIND       PRES   REMARKS
BURLINGTON     MOSUNNY   76  62  62 W5        30.04F
6HR MIN TEMP:  76; 6HR MAX TEMP:  80;

FAIRFIELD *    SUNNY     75  61  60 NW3       30.06S
FORT MADISON * MOSUNNY   75  66  73 CALM      30.06S
KEOKUK *       SUNNY     77  61  57 NW3       30.05S
OSKALOOSA *      N/A     75  63  66 NW3       30.07S
CENTERVILLE *  SUNNY     77  59  53 NW3       30.09S
OTTUMWA        SUNNY     76  60  57 NW3       30.06R
6HR MIN TEMP:  76; 6HR MAX TEMP:  80;

WASHINGTON *   SUNNY     77  61  57 NW6       30.05S
$$

ABBREVIATIONS USED IN REMARKS
   TC - TEMPERATURES IN CELSIUS
  WCI - WIND CHILL INDEX
   HX - HEAT INDEX
  VSB - VISIBILITY
$$



USA.gov is the U.S. government's official web portal to all federal, state and local government web resources and services.